HST,Max TemperatureF,Mean TemperatureF,Min TemperatureF,Max Dew PointF,MeanDew PointF,Min DewpointF,Max Humidity, Mean Humidity, Min Humidity, Max Sea Level PressureIn, Mean Sea Level PressureIn, Min Sea Level PressureIn, Max VisibilityMiles, Mean VisibilityMiles, Min VisibilityMiles, Max Wind SpeedMPH, Mean Wind SpeedMPH, Max Gust SpeedMPH,PrecipitationIn, CloudCover, Events, WindDirDegrees
2012-3-1,79,72,64,63,62,60,93,76,58,30.14,30.10,30.03,10,10,5,16,8,20,0.07,7,Rain,195
2012-3-2,76,71,65,68,65,60,93,86,79,30.14,30.09,30.02,10,8,2,15,6,20,0.24,8,Rain,156
2012-3-3,72,69,66,66,65,63,93,89,84,30.12,30.05,29.98,10,4,1,10,4,13,4.86,8,Rain-Thunderstorm,256
2012-3-4,79,72,65,66,64,61,93,78,62,30.02,29.97,29.90,10,10,10,15,5,18,T,6,Rain,178
2012-3-5,77,72,66,68,65,60,93,86,79,29.98,29.93,29.86,10,8,2,15,5,18,0.22,7,Rain,174
2012-3-6,80,71,62,72,64,58,93,78,62,30.06,29.97,29.89,10,10,10,15,5,20,0.01,5,Rain,166
2012-3-7,82,74,66,69,66,64,93,78,62,30.06,30.02,29.97,10,10,6,13,4,17,0.00,5,Rain,130
2012-3-8,80,74,67,67,65,63,90,76,62,30.05,30.02,29.97,10,10,4,14,5,16,0.03,6,Rain,218
2012-3-9,83,75,67,67,64,60,90,71,51,30.12,30.05,30.01,10,10,5,20,7,24,T,6,Rain,179
2012-3-10,77,72,66,68,65,62,93,83,73,30.18,30.13,30.07,10,9,2,15,5,17,0.30,8,Rain,204
2012-3-11,80,74,67,65,62,56,93,74,54,30.20,30.14,30.11,10,10,2,12,5,17,0.13,6,Rain,269
2012-3-12,78,71,64,67,65,57,93,81,69,30.18,30.12,30.07,10,9,3,17,6,24,0.18,7,Rain,4
2012-3-13,79,73,67,64,61,58,93,74,54,30.12,30.08,30.03,10,10,10,17,8,22,T,8,Rain,36
2012-3-14,80,73,65,63,60,57,93,71,48,30.13,30.07,30.02,10,10,10,13,6,16,T,8,Rain,244
2012-3-15,78,70,62,64,62,56,93,77,60,30.21,30.15,30.09,10,8,2,13,6,16,0.09,8,Rain,263
2012-3-16,80,71,62,65,61,54,84,69,54,30.25,30.20,30.14,10,10,6,15,8,21,0.07,7,Rain,222
2012-3-17,80,72,64,65,62,58,87,69,51,30.24,30.19,30.12,10,10,3,16,7,26,0.02,7,Rain,209
2012-3-18,76,71,66,68,65,62,93,81,69,30.17,30.13,30.07,10,7,2,17,5,22,0.32,8,Rain,192
2012-3-19,80,73,65,66,63,59,93,74,54,30.11,30.06,30.01,10,8,2,20,8,23,0.74,7,Rain,199
2012-3-20,81,74,66,65,62,57,81,68,54,30.13,30.07,30.02,10,10,3,17,8,23,T,6,Rain,177
2012-3-21,80,72,64,68,63,59,87,73,58,30.14,30.09,30.05,10,10,2,14,4,16,0.02,7,Rain,5
2012-3-22,79,73,66,66,64,61,100,81,62,30.14,30.09,30.03,10,9,2,20,8,24,0.61,6,Rain,249
2012-3-23,76,70,63,65,62,58,93,79,64,30.13,30.09,30.04,10,8,1,15,5,21,0.32,7,Rain,249
2012-3-24,75,70,64,68,64,62,93,83,73,30.16,30.11,30.06,10,5,2,22,6,29,3.69,8,Rain,234
2012-3-25,76,72,68,65,63,60,84,76,68,30.14,30.09,30.05,10,9,2,18,9,22,0.22,7,Rain,34
2012-3-26,71,67,63,66,63,59,93,86,78,30.12,30.09,30.04,10,6,1,13,6,15,0.60,8,Rain,269
2012-3-27,76,68,60,66,62,57,97,81,64,30.12,30.08,30.03,10,8,2,13,6,17,0.20,7,Rain,303
2012-3-28,79,71,62,64,62,59,93,76,58,30.12,30.08,30.04,10,10,8,13,7,20,0.05,6,Rain,327
2012-3-29,80,70,60,61,57,52,84,66,48,30.15,30.09,30.04,10,10,9,13,7,18,0.00,3,Rain,282
2012-3-30,79,71,63,64,61,59,87,71,54,30.19,30.13,30.08,10,10,9,14,7,17,0.01,7,Rain,330
2012-3-31,78,70,62,68,64,56,87,72,56,30.19,30.13,30.09,10,6,2,14,7,18,0.10,7,Rain,212